This demonstration page uses our WeatherBlox Daily Observations layout. Learn more.

Left ArrowRight Arrow

Hourly Observations for July 8, 2015

Temp ( °F °C ) Dew Point ( °F °C ) Humidity (%) Winds ( mph kmh ) Pressure ( in mb ) Visibility ( mi km ) Precip ( " mm )
12:52 am 00:52 Cloudy with Mist and Fog 68 20 67 19.4 96 96 E 5 7 29.98 1015 6 10 0.00 0.03
1:15 am 01:15 Cloudy with Mist and Fog 68 20 67 19.4 96 96 ESE 6 9 29.97 1015 2 3 0.00 0.00
1:32 am 01:32 Mostly Cloudy with Mist and Fog 68 20 66 19 94 94 E 6 9 29.97 1015 1 1 0.00 0.00
1:52 am 01:52 Mostly Cloudy with Rain 69 20.6 68 20 96 96 E 3 6 29.96 1015 1 1 0.02 0.51
1:59 am 01:59 Cloudy with Rain 69 20.6 68 20 96 96 Calm 29.97 1015 2 3 0.02 0.51
2:06 am 02:06 Cloudy with Heavy Rain 69 20.6 68 20 96 96 NE 5 7 29.97 1015 2 3 0.07 1.78
2:18 am 02:18 Cloudy with Light Rain 70 21 68 20 94 94 ENE 5 7 29.97 1015 7 11 0.00 0.00
2:52 am 02:52 Cloudy 69 20.6 68 20 96 96 E 6 9 29.95 1014 9 14 0.08 2.03
3:20 am 03:20 Cloudy with Light Rain 70 21 70 21 100 100 Calm 29.94 1014 2 3 0.00 0.00
3:41 am 03:41 Cloudy with Light Rain 71 21.7 70 21.1 96 96 SSE 7 11 29.94 1014 3 5 0.01 0.25
3:52 am 03:52 Cloudy with Light Rain 71 21.7 70 21.1 96 96 SSE 6 9 29.94 1014 7 11 0.02 0.51
4:24 am 04:24 Cloudy with Light Rain 72 22 70 21 94 94 Calm 29.94 1014 9 14 0.00 0.00
4:37 am 04:37 Cloudy with Rain 71 21.7 70 21.1 96 96 Calm 29.94 1014 3 4 0.09 2.29
4:40 am 04:40 Cloudy with Heavy Rain 72 22 70 21 94 94 ESE 5 7 29.94 1014 2 2 0.00 0.00
4:47 am 04:47 Cloudy with Heavy Rain 72 22 70 21 94 94 SE 6 9 29.94 1014 2 3 0.31 7.87
4:52 am 04:52 Cloudy with Heavy Rain 71 21.7 70 21.1 96 96 SE 6 9 29.94 1014 3 5 0.34 8.64
5:00 am 05:00 Cloudy with Light Rain 72 22 70 21 94 94 SE 5 7 29.94 1014 6 10 0.00 0.00
5:16 am 05:16 Cloudy with Light Rain 72 22.2 70 21.1 94 94 SSE 6 9 29.94 1014 9 14 0.02 0.51
5:43 am 05:43 Cloudy with Light Rain 72 22.2 70 21.1 94 94 SE 5 7 29.94 1014 9 14 0.03 0.76
5:52 am 05:52 Cloudy with Light Rain 72 22.2 70 21.1 94 94 SE 8 13 29.94 1014 8 13 0.04 1.02
6:11 am 06:11 Cloudy with Light Rain 72 22.2 70 21.1 94 94 SE 8 13 29.94 1014 10 16 0.01 0.25
6:22 am 06:22 Cloudy with Light Rain 72 22 70 21 94 94 SE 8 13 29.94 1014 10 16 0.00 0.00
6:52 am 06:52 Cloudy with Light Rain 71 21.7 70 21.1 96 96 SSE 8 13 29.95 1014 8 13 0.03 0.76
7:16 am 07:16 Mostly Cloudy with Light Rain 72 22.2 69 20.6 91 91 SSE 9 15 29.94 1014 9 14 0.01 0.25
7:52 am 07:52 Mostly Cloudy with Light Rain 72 22.2 69 20.6 91 91 SSE 7 11 29.94 1014 10 16 0.01 0.25
8:52 am 08:52 Mostly Cloudy 73 22.8 70 21.1 90 90 SSE 10 17 29.93 1013 10 16 0.01 0.25
9:52 am 09:52 Cloudy with Light Rain 74 23.3 71 21.7 91 91 SSE 13 20 29.91 1013 7 11 0.01 0.25
10:52 am 10:52 Cloudy with Light Rain 75 23.9 71 21.7 88 88 S 15 24 29.91 1013 7 11 0.04 1.02
11:41 am 11:41 Mostly Cloudy 75 23.9 71 21.7 88 88 S 16 26 29.88 1012 10 16 0.03 0.76
11:52 am 11:52 Mostly Cloudy 76 24.4 72 22.2 88 88 S 16 26 29.90 1013 10 16 0.03 0.76
12:52 pm 12:52 Cloudy with Light Rain 75 23.9 72 22.2 90 90 S 15 24 29.89 1012 9 14 0.03 0.76
1:38 pm 13:38 Cloudy with Light Rain 75 24 72 22 89 89 S 15 24 29.85 1011 4 6 0.00 0.00
1:52 pm 13:52 Cloudy with Rain 75 23.9 72 22.2 90 90 S 15 24 29.88 1012 4 6 0.07 1.78
1:58 pm 13:58 Cloudy with Heavy Rain 75 24 72 22 89 89 S 16 26 29.85 1011 2 3 0.00 0.00
2:04 pm 14:04 Cloudy with Light Rain 75 24 72 22 89 89 SSW 21 33 29.85 1011 2 3 0.00 0.00
2:08 pm 14:08 Cloudy with Light Rain 75 24 72 22 89 89 SSW 20 31 29.85 1011 6 10 0.00 0.00
2:29 pm 14:29 Mostly Cloudy 75 23.9 70 21.1 84 84 SSW 17 28 29.85 1011 10 16 0.08 2.03
2:52 pm 14:52 Mostly Cloudy 75 23.9 71 21.7 88 88 SSW 17 28 29.88 1012 10 16 0.08 2.03
3:26 pm 15:26 Cloudy 77 25 72 22 83 83 SSW 20 31 29.85 1011 10 16 0.00 0.00
3:48 pm 15:48 Cloudy with Light Rain 75 24 72 22 89 89 SSW 18 30 29.85 1011 10 16 0.00 0.00
3:52 pm 15:52 Cloudy with Light Rain 76 24.4 71 21.7 85 85 SSW 17 28 29.87 1011 10 16 0.00 0.03
4:36 pm 16:36 Cloudy with Rain 73 23 72 22 94 94 SW 9 15 29.85 1011 2 3 0.00 0.00
4:41 pm 16:41 Cloudy with Light Rain 74 23.3 71 21.7 91 91 WSW 8 13 29.85 1011 3 5 0.06 1.52
4:52 pm 16:52 Cloudy with Light Rain 74 23.3 71 21.7 91 91 WSW 8 13 29.88 1012 7 11 0.07 1.78
5:04 pm 17:04 Cloudy with Light Rain 73 23 72 22 94 94 WSW 9 15 29.85 1011 10 16 0.00 0.00
5:15 pm 17:15 Cloudy with Light Rain 73 22.8 71 21.7 94 94 WSW 8 13 29.85 1011 10 16 0.01 0.25
5:47 pm 17:47 Cloudy 73 23 70 21 89 89 W 13 20 29.85 1011 10 16 0.01 0.25
5:52 pm 17:52 Cloudy 74 23.3 70 21.1 88 88 WSW 12 19 29.89 1012 10 16 0.01 0.25
6:32 pm 18:32 Cloudy with Light Rain 73 23 70 21 89 89 W 10 17 29.85 1011 10 16 0.00 0.00
6:42 pm 18:42 Cloudy 73 23 70 21 89 89 W 12 19 29.85 1011 10 16 0.00 0.00
6:52 pm 18:52 Cloudy with Light Rain 73 22.8 69 20.6 87 87 W 14 22 29.89 1012 10 16 0.01 0.25
7:21 pm 19:21 Cloudy with Light Rain 72 22.2 69 20.6 91 91 W 8 13 29.91 1013 10 16 0.00 0.03
7:28 pm 19:28 Cloudy 72 22 70 21 94 94 W 7 11 29.91 1013 10 16 0.00 0.00
7:34 pm 19:34 Cloudy 72 22 70 21 94 94 WNW 6 9 29.91 1013 10 16 0.00 0.00
7:52 pm 19:52 Cloudy 71 21.7 69 20.6 94 94 W 7 11 29.91 1013 10 16 0.00 0.03
8:52 pm 20:52 Cloudy 71 21.7 68 20 90 90 W 7 11 29.92 1013 10 16 0.00 0.00
9:52 pm 21:52 Cloudy 70 21.1 68 20 93 93 W 8 13 29.95 1014 7 11 0.00 0.03
10:52 pm 22:52 Cloudy 70 21.1 67 19.4 90 90 W 9 15 29.97 1015 9 14 0.00 0.00
11:12 pm 23:12 Cloudy with Mist and Fog 70 21 66 19 88 88 W 8 13 29.97 1015 3 4 0.00 0.00
11:16 pm 23:16 Cloudy with Mist and Fog 70 21 66 19 88 88 W 7 11 29.97 1015 3 5 0.00 0.00
11:52 pm 23:52 Cloudy with Mist and Fog 69 20.6 68 20 96 96 WSW 7 11 29.98 1015 4 6 0.00 0.00
11:59 pm 23:59 Cloudy with Mist and Fog 69 20.6 68 20 96 96 W 5 7 30.00 1016 4 6 0.00 0.00

Powered by AerisWeather